Time,TemperatureF,DewpointF,PressureIn,WindDirection,WindDirectionDegrees,WindSpeedMPH,WindSpeedGustMPH,Humidity,HourlyPrecipIn,Conditions,Clouds,dailyrainin,SoftwareType,DateUTC
2013-10-13 00:13:00,47.9,47.0,30.39,SSE,156,0.0,0.0,97,0.00,,,0.00,weatherlink.com 1.10,2013-10-13 04:13:00,
2013-10-13 00:28:00,47.7,47.0,30.39,SE,130,0.0,1.0,97,0.00,,,0.00,weatherlink.com 1.10,2013-10-13 04:28:00,
2013-10-13 00:43:00,47.4,47.0,30.39,SE,139,0.0,1.0,97,0.00,,,0.00,weatherlink.com 1.10,2013-10-13 04:43:00,
2013-10-13 00:58:00,47.0,46.0,30.39,South,179,0.0,1.0,97,0.00,,,0.00,weatherlink.com 1.10,2013-10-13 04:58:00,
2013-10-13 01:14:00,46.7,46.0,30.39,South,170,0.0,1.0,97,0.00,,,0.00,weatherlink.com 1.10,2013-10-13 05:14:00,
2013-10-13 01:29:00,46.5,46.0,30.39,SE,146,1.0,3.0,97,0.00,,,0.00,weatherlink.com 1.10,2013-10-13 05:29:00,
2013-10-13 01:44:00,46.3,46.0,30.39,SSE,167,0.0,4.0,97,0.00,,,0.00,weatherlink.com 1.10,2013-10-13 05:44:00,
2013-10-13 01:59:00,46.2,45.0,30.39,SSE,162,0.0,3.0,97,0.00,,,0.00,weatherlink.com 1.10,2013-10-13 05:59:00,
2013-10-13 02:14:00,46.3,45.0,30.39,SSE,162,0.0,0.0,96,0.00,,,0.00,weatherlink.com 1.10,2013-10-13 06:14:00,
2013-10-13 02:29:00,46.3,45.0,30.39,SSE,162,0.0,0.0,96,0.00,,,0.00,weatherlink.com 1.10,2013-10-13 06:29:00,
2013-10-13 02:44:00,46.4,46.0,30.38,SSE,162,0.0,0.0,97,0.00,,,0.00,weatherlink.com 1.10,2013-10-13 06:44:00,
2013-10-13 02:59:00,46.4,46.0,30.38,SSE,162,0.0,0.0,97,0.00,,,0.00,weatherlink.com 1.10,2013-10-13 06:59:00,
2013-10-13 03:14:00,46.3,46.0,30.38,SSE,162,0.0,0.0,97,0.00,,,0.00,weatherlink.com 1.10,2013-10-13 07:14:00,
2013-10-13 03:29:00,46.0,45.0,30.38,SSE,162,0.0,0.0,97,0.00,,,0.00,weatherlink.com 1.10,2013-10-13 07:29:00,
2013-10-13 03:44:00,45.7,45.0,30.38,SSE,162,0.0,0.0,97,0.00,,,0.00,weatherlink.com 1.10,2013-10-13 07:44:00,
2013-10-13 03:59:00,45.9,45.0,30.38,SSE,162,0.0,0.0,97,0.00,,,0.00,weatherlink.com 1.10,2013-10-13 07:59:00,
2013-10-13 04:14:00,46.1,45.0,30.38,SSE,162,0.0,0.0,97,0.00,,,0.00,weatherlink.com 1.10,2013-10-13 08:14:00,
2013-10-13 04:29:00,45.9,45.0,30.38,SSE,162,0.0,0.0,97,0.00,,,0.00,weatherlink.com 1.10,2013-10-13 08:29:00,
2013-10-13 04:44:00,45.8,45.0,30.38,SSE,162,0.0,0.0,97,0.00,,,0.00,weatherlink.com 1.10,2013-10-13 08:44:00,
2013-10-13 04:59:00,45.9,45.0,30.38,SSE,162,0.0,0.0,97,0.00,,,0.00,weatherlink.com 1.10,2013-10-13 08:59:00,
2013-10-13 05:14:00,46.0,45.0,30.38,SSE,162,0.0,0.0,97,0.00,,,0.00,weatherlink.com 1.10,2013-10-13 09:14:00,
2013-10-13 05:29:00,45.5,45.0,30.39,SSE,162,0.0,0.0,97,0.00,,,0.00,weatherlink.com 1.10,2013-10-13 09:29:00,
2013-10-13 05:44:00,45.2,44.0,30.39,SSE,162,0.0,0.0,97,0.00,,,0.00,weatherlink.com 1.10,2013-10-13 09:44:00,
2013-10-13 05:59:00,44.9,44.0,30.39,SSE,162,0.0,0.0,97,0.00,,,0.00,weatherlink.com 1.10,2013-10-13 09:59:00,
2013-10-13 06:29:00,44.2,43.0,30.40,SSE,162,0.0,0.0,97,0.00,,,0.00,weatherlink.com 1.10,2013-10-13 10:29:00,
2013-10-13 06:44:00,44.1,43.0,30.40,SSE,162,0.0,0.0,97,0.00,,,0.00,weatherlink.com 1.10,2013-10-13 10:44:00,
2013-10-13 06:59:00,44.3,44.0,30.41,SSE,162,0.0,1.0,98,0.00,,,0.00,weatherlink.com 1.10,2013-10-13 10:59:00,
2013-10-13 07:14:00,45.2,45.0,30.41,SSE,162,0.0,1.0,98,0.00,,,0.00,weatherlink.com 1.10,2013-10-13 11:14:00,
2013-10-13 07:29:00,45.0,44.0,30.41,SSE,162,0.0,1.0,97,0.00,,,0.00,weatherlink.com 1.10,2013-10-13 11:29:00,
2013-10-13 07:44:00,45.4,45.0,30.41,SSE,162,0.0,1.0,98,0.00,,,0.00,weatherlink.com 1.10,2013-10-13 11:44:00,
2013-10-13 07:59:00,45.9,45.0,30.42,SSE,162,0.0,0.0,98,0.00,,,0.00,weatherlink.com 1.10,2013-10-13 11:59:00,
2013-10-13 08:14:00,46.3,46.0,30.42,SSE,162,0.0,0.0,97,0.00,,,0.00,weatherlink.com 1.10,2013-10-13 12:14:00,
2013-10-13 08:29:00,46.6,46.0,30.42,SSE,162,0.0,1.0,97,0.00,,,0.00,weatherlink.com 1.10,2013-10-13 12:29:00,
2013-10-13 08:44:00,46.7,46.0,30.43,South,179,0.0,1.0,97,0.00,,,0.00,weatherlink.com 1.10,2013-10-13 12:44:00,
2013-10-13 08:59:00,46.8,46.0,30.43,South,179,0.0,1.0,97,0.00,,,0.00,weatherlink.com 1.10,2013-10-13 12:59:00,
2013-10-13 09:14:00,46.9,46.0,30.43,South,179,0.0,0.0,97,0.00,,,0.00,weatherlink.com 1.10,2013-10-13 13:14:00,
2013-10-13 09:29:00,47.3,46.0,30.43,South,180,0.0,1.0,96,0.00,,,0.00,weatherlink.com 1.10,2013-10-13 13:29:00,
2013-10-13 09:44:00,47.9,47.0,30.44,South,180,0.0,2.0,96,0.00,,,0.00,weatherlink.com 1.10,2013-10-13 13:44:00,
2013-10-13 09:59:00,47.6,46.0,30.44,South,171,0.0,3.0,93,0.00,,,0.00,weatherlink.com 1.10,2013-10-13 13:59:00,
2013-10-13 10:14:00,47.8,46.0,30.45,SSE,155,0.0,5.0,92,0.00,,,0.00,weatherlink.com 1.10,2013-10-13 14:14:00,
2013-10-13 10:29:00,47.9,46.0,30.45,South,181,1.0,1.0,91,0.00,,,0.00,weatherlink.com 1.10,2013-10-13 14:29:00,
2013-10-13 10:44:00,47.9,46.0,30.45,SSE,154,0.0,2.0,91,0.00,,,0.00,weatherlink.com 1.10,2013-10-13 14:44:00,
2013-10-13 10:59:00,47.9,46.0,30.45,SSE,155,0.0,3.0,91,0.00,,,0.00,weatherlink.com 1.10,2013-10-13 14:59:00,
2013-10-13 11:14:00,47.9,46.0,30.46,NNE,33,0.0,3.0,91,0.00,,,0.00,weatherlink.com 1.10,2013-10-13 15:14:00,
2013-10-13 11:29:00,48.1,46.0,30.45,SSE,167,0.0,1.0,91,0.00,,,0.00,weatherlink.com 1.10,2013-10-13 15:29:00,
2013-10-13 11:44:00,48.5,46.0,30.45,NNW,340,0.0,2.0,91,0.00,,,0.00,weatherlink.com 1.10,2013-10-13 15:44:00,
2013-10-13 11:59:00,48.4,46.0,30.45,SSW,195,0.0,1.0,90,0.00,,,0.00,weatherlink.com 1.10,2013-10-13 15:59:00,
2013-10-13 12:14:00,48.3,46.0,30.45,SW,214,1.0,3.0,90,0.00,,,0.00,weatherlink.com 1.10,2013-10-13 16:14:00,
2013-10-13 12:29:00,48.4,46.0,30.45,SSW,200,0.0,4.0,90,0.00,,,0.00,weatherlink.com 1.10,2013-10-13 16:29:00,
2013-10-13 12:44:00,48.7,46.0,30.44,WNW,300,2.0,3.0,91,0.00,,,0.00,weatherlink.com 1.10,2013-10-13 16:44:00,
2013-10-13 12:59:00,49.2,47.0,30.43,WNW,303,0.0,3.0,90,0.00,,,0.00,weatherlink.com 1.10,2013-10-13 16:59:00,
2013-10-13 13:14:00,49.6,47.0,30.43,WNW,303,0.0,0.0,90,0.00,,,0.00,weatherlink.com 1.10,2013-10-13 17:14:00,
2013-10-13 13:29:00,49.5,46.0,30.43,WNW,302,0.0,3.0,88,0.00,,,0.00,weatherlink.com 1.10,2013-10-13 17:29:00,
2013-10-13 13:44:00,49.1,46.0,30.43,NW,308,0.0,1.0,89,0.00,,,0.00,weatherlink.com 1.10,2013-10-13 17:44:00,
2013-10-13 13:59:00,49.0,46.0,30.42,NW,308,0.0,1.0,89,0.00,,,0.00,weatherlink.com 1.10,2013-10-13 17:59:00,
2013-10-13 14:14:00,49.2,46.0,30.42,NW,308,0.0,1.0,89,0.00,,,0.00,weatherlink.com 1.10,2013-10-13 18:14:00,
2013-10-13 14:29:00,49.5,46.0,30.41,NW,308,0.0,1.0,89,0.00,,,0.00,weatherlink.com 1.10,2013-10-13 18:29:00,
2013-10-13 14:44:00,49.6,47.0,30.41,NW,308,0.0,0.0,89,0.00,,,0.00,weatherlink.com 1.10,2013-10-13 18:44:00,
2013-10-13 14:59:00,50.0,47.0,30.41,SW,227,0.0,2.0,88,0.00,,,0.00,weatherlink.com 1.10,2013-10-13 18:59:00,
2013-10-13 15:14:00,50.1,47.0,30.41,SSW,209,0.0,1.0,88,0.00,,,0.00,weatherlink.com 1.10,2013-10-13 19:14:00,
2013-10-13 15:29:00,50.1,47.0,30.41,SSE,157,0.0,2.0,88,0.00,,,0.00,weatherlink.com 1.10,2013-10-13 19:29:00,
2013-10-13 15:45:00,49.8,47.0,30.41,SSW,207,0.0,1.0,89,0.00,,,0.00,weatherlink.com 1.10,2013-10-13 19:45:00,
2013-10-13 16:00:00,49.4,47.0,30.41,SSW,199,0.0,2.0,90,0.00,,,0.00,weatherlink.com 1.10,2013-10-13 20:00:00,
2013-10-13 16:15:00,49.3,47.0,30.41,West,271,0.0,3.0,90,0.00,,,0.00,weatherlink.com 1.10,2013-10-13 20:15:00,
2013-10-13 16:30:00,49.2,47.0,30.41,East,93,0.0,2.0,90,0.00,,,0.00,weatherlink.com 1.10,2013-10-13 20:30:00,
2013-10-13 16:45:00,49.0,46.0,30.40,ENE,75,0.0,2.0,90,0.00,,,0.00,weatherlink.com 1.10,2013-10-13 20:45:00,
2013-10-13 17:00:00,48.9,46.0,30.40,SSW,194,0.0,2.0,90,0.00,,,0.00,weatherlink.com 1.10,2013-10-13 21:00:00,
2013-10-13 17:15:00,48.9,46.0,30.40,SSW,194,0.0,1.0,91,0.00,,,0.00,weatherlink.com 1.10,2013-10-13 21:15:00,
2013-10-13 17:30:00,48.6,46.0,30.39,SSW,194,0.0,0.0,92,0.00,,,0.00,weatherlink.com 1.10,2013-10-13 21:30:00,
2013-10-13 17:45:00,48.5,46.0,30.39,WSW,244,0.0,0.0,92,0.00,,,0.00,weatherlink.com 1.10,2013-10-13 21:45:00,
2013-10-13 18:00:00,48.4,46.0,30.39,WSW,244,0.0,0.0,92,0.00,,,0.00,weatherlink.com 1.10,2013-10-13 22:00:00,
2013-10-13 18:15:00,48.1,46.0,30.39,WSW,247,0.0,1.0,92,0.00,,,0.00,weatherlink.com 1.10,2013-10-13 22:15:00,
2013-10-13 18:30:00,48.1,46.0,30.39,SW,236,0.0,0.0,93,0.00,,,0.00,weatherlink.com 1.10,2013-10-13 22:30:00,
2013-10-13 18:45:00,47.8,46.0,30.40,SSE,152,0.0,3.0,93,0.00,,,0.00,weatherlink.com 1.10,2013-10-13 22:45:00,
2013-10-13 19:00:00,47.7,46.0,30.40,SSE,153,0.0,0.0,93,0.00,,,0.00,weatherlink.com 1.10,2013-10-13 23:00:00,
2013-10-13 19:15:00,47.6,46.0,30.40,SSE,153,0.0,0.0,93,0.00,,,0.00,weatherlink.com 1.10,2013-10-13 23:15:00,
2013-10-13 19:30:00,47.6,46.0,30.41,SSE,153,0.0,1.0,93,0.00,,,0.00,weatherlink.com 1.10,2013-10-13 23:30:00,
2013-10-13 19:45:00,47.6,46.0,30.41,SE,130,0.0,1.0,93,0.00,,,0.00,weatherlink.com 1.10,2013-10-13 23:45:00,
2013-10-13 20:00:00,47.5,46.0,30.41,ESE,113,0.0,2.0,94,0.00,,,0.00,weatherlink.com 1.10,2013-10-14 00:00:00,
2013-10-13 20:15:00,47.4,46.0,30.41,SE,129,0.0,1.0,94,0.00,,,0.00,weatherlink.com 1.10,2013-10-14 00:15:00,
2013-10-13 20:30:00,47.4,46.0,30.41,South,180,0.0,1.0,94,0.00,,,0.00,weatherlink.com 1.10,2013-10-14 00:30:00,
2013-10-13 20:45:00,47.3,46.0,30.41,South,180,0.0,0.0,94,0.00,,,0.00,weatherlink.com 1.10,2013-10-14 00:45:00,
2013-10-13 21:00:00,47.3,46.0,30.41,South,180,0.0,0.0,94,0.00,,,0.00,weatherlink.com 1.10,2013-10-14 01:00:00,
2013-10-13 21:15:00,47.3,46.0,30.41,South,180,0.0,0.0,94,0.00,,,0.00,weatherlink.com 1.10,2013-10-14 01:15:00,
2013-10-13 21:30:00,47.3,46.0,30.41,South,180,0.0,0.0,94,0.00,,,0.00,weatherlink.com 1.10,2013-10-14 01:30:00,
2013-10-13 21:45:00,47.3,46.0,30.41,South,180,0.0,0.0,94,0.00,,,0.00,weatherlink.com 1.10,2013-10-14 01:45:00,
2013-10-13 22:00:00,47.3,46.0,30.41,South,184,0.0,1.0,94,0.00,,,0.00,weatherlink.com 1.10,2013-10-14 02:00:00,
2013-10-13 22:15:00,47.3,46.0,30.40,South,184,0.0,0.0,94,0.00,,,0.00,weatherlink.com 1.10,2013-10-14 02:15:00,
2013-10-13 22:30:00,47.3,46.0,30.40,South,184,0.0,0.0,94,0.00,,,0.00,weatherlink.com 1.10,2013-10-14 02:30:00,
2013-10-13 22:45:00,47.2,46.0,30.40,South,184,0.0,0.0,94,0.00,,,0.00,weatherlink.com 1.10,2013-10-14 02:45:00,
2013-10-13 23:00:00,47.1,46.0,30.40,WNW,286,1.0,2.0,94,0.00,,,0.00,weatherlink.com 1.10,2013-10-14 03:00:00,
2013-10-13 23:15:00,46.9,45.0,30.40,WNW,286,0.0,0.0,93,0.00,,,0.00,weatherlink.com 1.10,2013-10-14 03:15:00,
2013-10-13 23:30:00,46.9,45.0,30.39,WNW,286,0.0,0.0,93,0.00,,,0.00,weatherlink.com 1.10,2013-10-14 03:30:00,
2013-10-13 23:45:00,46.8,45.0,30.39,WNW,286,0.0,0.0,94,0.00,,,0.00,weatherlink.com 1.10,2013-10-14 03:45:00,